{"data":{"norad_id":59184,"epoch":"2026-05-24T09:28:47.059104Z","epoch_age_seconds":127517,"freshness":"FRESH","line1":"1 59184U 24045G   26144.39498911  .00001249  00000+0  54925-4 0  9997","line2":"2 59184  43.0061  24.6471 0001340 264.2082  95.8617 15.27569303124744","mean_motion":15.27569303,"eccentricity":0.000134,"inclination_deg":43.0061,"raan_deg":24.6471,"arg_perigee_deg":264.2082,"mean_anomaly_deg":95.8617,"bstar":5.4925e-5,"rev_number":12474,"period_min":94.267408828652,"perigee_km":482.16172366379,"apogee_km":484.0005301218,"semimajor_km":6861.2181268928,"source":"CELESTRAK","updated_at":"2026-05-25T13:38:18.859758Z"}}